Regional Weather Roundup
Issued by NWS

Home | Current Version | Previous Version | Graphics & Text | Print | Product List | Glossary On
Versions: 1 2 3 4 5 6 7 8 9 10 11 12 13 14 15 16 17 18 19 20 21 22 23 24 25 26 27 28 29 30 31 32 33 34 35 36 37 38 39 40 41 42 43 44 45 46 47 48 49 50
000
ASUS43 KOAX 211710
RWRNE

WEATHER ROUNDUP FOR NEBRASKA
NATIONAL WEATHER SERVICE OMAHA NE
1200 PM CDT SAT APR 21 2018

NOTES: SATELLITE DATA IS BEING USED TO AUGMENT CLOUD COVER ABOVE
       12000 FEET.
       "FAIR" INDICATES FEW OR NO CLOUDS BELOW 12,000 FEET WITH NO
       SIGNIFICANT WEATHER AND/OR OBSTRUCTIONS TO VISIBILITY.


NEZ001>004-019>022-054>056-211800-
NEBRASKA PANHANDLE

CITY           SKY/WX    TMP DP  RH WIND       PRES   REMARKS
SCOTTSBLUFF    LGT RAIN  38  38 100 SE6       30.22F WCI  33
ALLIANCE       CLOUDY    36  36 100 S10       30.22S WCI  28
CHADRON        LGT RAIN  37  35  92 S9        30.24S WCI  30
GORDON         LGT RAIN  40  37  89 S7        30.23S WCI  35
KIMBALL        LGT RAIN  35  34  96 CALM      30.21R
SIDNEY         CLOUDY    36  33  89 E7        30.22R WCI  30
$$

NEZ057>060-069>072-079>082-211800-
SOUTHWEST NEBRASKA

CITY           SKY/WX    TMP DP  RH WIND       PRES   REMARKS
NORTH PLATTE   CLOUDY    44  38  79 E12       30.25S
IMPERIAL       CLOUDY    41  39  93 E6        30.22S
LEXINGTON      DRIZZLE   44  39  83 E14       30.25R
MCCOOK         CLOUDY    43  41  93 E13       30.22F
OGALLALA       CLOUDY    40  38  91 E6        30.25R
$$

NEZ005>010-023>029-035>040-094-211800-
NORTH CENTRAL NEBRASKA

CITY           SKY/WX    TMP DP  RH WIND       PRES   REMARKS
VALENTINE      LGT RAIN  42  38  85 SE7       30.30R
AINSWORTH      DRIZZLE   40  39  96 CALM      30.30R
BROKEN BOW     LGT RAIN  42  37  82 NE9       30.26S
O`NEILL        CLOUDY    46  38  74 N8        30.31S
ORD            CLOUDY    44  39  82 E5        30.29R
THEDFORD       LGT RAIN  41  39  92 E9        30.28S
$$

NEZ041-046>049-061>064-073>077-083>087-211800-
SOUTH CENTRAL NEBRASKA

CITY           SKY/WX    TMP DP  RH WIND       PRES   REMARKS
GRAND ISLAND   LGT RAIN  43  40  89 E3        30.27S FOG
AURORA         CLOUDY    44  40  88 CALM      30.27S
HASTINGS       CLOUDY    43  39  86 E5        30.26S
HEBRON         DRIZZLE   45  42  90 E7        30.26F
HOLDREGE       CLOUDY    42  41  95 E14       30.24S
KEARNEY        LGT RAIN  43  37  79 E7        30.26S
YORK             N/A     45  41  87 CALM      30.27S
$$

NEZ011>018-030>034-042>045-211800-
NORTHEAST NEBRASKA

CITY           SKY/WX    TMP DP  RH WIND       PRES   REMARKS
NORFOLK        CLOUDY    47  32  56 E8        30.29R
ALBION         CLOUDY    47  32  56 SE6       30.30S
BLAIR          CLOUDY    51  31  45 E8        30.30S
COLUMBUS       CLOUDY    48  31  51 E7        30.30
FREMONT        CLOUDY    52  30  43 E9        30.30S
TEKAMAH        CLOUDY    53  29  39 E9        30.30F
WAYNE          CLOUDY    46  35  63 NE8       30.32S
$$

NEZ050>053-065>068-078-088>093-211800-
SOUTHEAST NEBRASKA

CITY           SKY/WX    TMP DP  RH WIND       PRES   REMARKS
LINCOLN        CLOUDY    48  39  71 E3        30.30R
OMAHA EPPLEY   CLOUDY    52  28  39 E9        30.31R
BEATRICE       LGT RAIN  47  43  85 E7        30.28F
FALLS CITY     LGT RAIN  47  40  76 W3        30.30R
NEBRASKA CITY  CLOUDY    51  33  50 NW3       30.29S
PLATTSMOUTH    CLOUDY    51  27  39 CALM      30.30S
$$

NEZ044-045-051>053-067-211800-
OMAHA AREA

CITY           SKY/WX    TMP DP  RH WIND       PRES   REMARKS
OMAHA EPPLEY   CLOUDY    52  28  39 E9        30.31R
BLAIR          CLOUDY    51  31  45 E8        30.30S
FREMONT        CLOUDY    52  30  43 E9        30.30S
MILLARD        CLOUDY    52  31  44 E3        30.31R
OFFUTT AFB     PTSUNNY   53  29  40 E5        30.29S
PLATTSMOUTH    CLOUDY    51  27  39 CALM      30.30S
WAHOO          CLOUDY    51  25  37 E13       30.29R
$$



USA.gov is the U.S. government's official web portal to all federal, state and local government web resources and services.